SCP
0 0 2 1 -0 -0 0 0 0 0 0 0 0 0 0 0 0 0 0 0 0 0 0 0 0 0 0 0 0 0 0 0 0 -0 0 0 0 0 0 0 0 0 0
-0 0 1 0 -0 0 0 0 0 0 0 0 0 0 0 0 0 0 0 0 0 0 0 0 0 0 0 0 0 0 0 0 0 0 -0 0 0 0 0 0 0 0 0
0 -0 0 0 0 0 0 0 0 0 0 0 0 0 0 0 0 0 0 0 0 0 0 0 0 0 0 0 0 0 0 0 0 0 0 0 0 0 0 0 0 0 0
0 -0 0 0 0 0 0 0 0 0 0 0 0 0 0 0 0 0 0 0 0 0 0 0 0 0 0 0 0 0 0 0 0 0 0 0 0 0 0 0 0 0 0
0 -0 0 0 0 0 0 0 0 0 0 0 0 0 0 0 0 0 0 0 0 0 0 0 0 0 0 0 0 0 0 0 0 0 0 0 0 0 0 0 0 0 0
-0 -0 0 0 0 0 0 0 0 0 0 0 0 0 0 0 0 0 0 0 0 0 0 0 0 0 0 0 0 0 0 0 0 0 0 0 0 0 0 0 0 0 0
0 0 0 0 0 0 0 0 0 0 0 0 0 0 0 0 0 0 0 0 0 0 0 0 0 0 0 0 0 0 0 0 0 0 0 0 0 0 0 0 0 0 0
0 0 0 0 0 0 0 0 0 0 0 0 0 0 0 0 0 0 0 0 0 0 0 0 0 0 0 0 0 0 0 0 0 0 0 0 0 0 0 0 0 0 0
0 0 0 0 0 0 0 0 0 0 0 0 0 0 0 0 0 0 0 0 0 0 0 0 0 0 0 0 0 0 0 0 0 0 0 0 0 0 0 0 0 0 0
0 0 0 0 0 0 0 0 0 0 0 0 0 0 0 0 0 0 0 0 0 0 0 0 0 0 0 0 0 0 0 0 0 0 0 0 0 0 0 0 0 0 0
0 0 0 0 0 0 0 0 0 0 0 0 0 0 0 0 0 0 0 0 0 0 0 0 0 0 0 0 0 0 0 0 0 0 0 0 0 0 0 0 0 0 0
0 0 0 0 0 0 0 0 0 0 0 0 0 0 0 0 0 0 0 0 0 0 0 0 0 0 0 0 0 0 0 0 0 0 0 0 0 0 0 0 0 0 0
0 0 0 0 0 0 0 0 0 0 0 0 0 0 0 0 0 0 0 0 0 0 0 0 0 0 0 0 0 0 0 0 0 0 0 0 0 0 0 0 0 0 0
0 0 0 0 0 0 0 0 0 0 0 0 0 0 0 0 0 0 0 0 0 0 0 0 0 0 0 0 0 0 0 0 0 0 0 0 0 0 0 0 0 0 0
0 0 0 0 0 0 0 0 0 0 0 0 0 0 0 0 0 0 0 0 0 0 0 0 0 0 0 0 0 0 0 0 0 0 0 0 0 0 0 0 0 0 0
0 0 0 0 0 0 0 0 0 0 0 0 0 0 0 0 0 0 0 0 0 0 0 0 0 0 0 0 0 0 0 0 0 0 0 0 0 0 0 0 0 0 0
0 0 0 0 0 -0 -0 0 0 0 0 0 0 0 0 0 0 0 0 0 0 0 0 0 0 0 0 0 0 0 0 0 0 0 0 0 0 0 0 0 0 0 0
0 0 0 0 0 0 -0 0 0 0 0 0 0 0 0 0 0 0 0 0 0 0 0 0 0 0 0 0 0 0 0 0 0 0 0 0 0 0 0 0 0 0 0
0 0 0 0 0 0 0 -0 0 0 0 0 0 0 0 0 0 0 0 0 0 0 0 0 0 0 0 0 0 0 0 0 0 0 0 0 0 0 0 0 0 0 0
0 0 0 0 0 0 0 0 0 0 0 0 0 0 0 0 0 0 0 0 0 0 0 0 0 0 0 0 0 0 0 0 0 0 0 0 0 0 0 0 0 0 0
0 0 0 0 0 0 0 0 0 0 0 0 0 0 0 0 0 0 0 0 0 0 0 0 0 0 0 0 0 0 0 0 0 0 0 0 0 0 0 0 0 0 0
0 0 0 0 0 0 0 0 0 0 0 0 0 0 0 0 0 0 0 0 0 0 0 0 0 0 0 0 0 0 0 0 0 0 0 0 0 0 0 0 0 0 0
0 0 0 0 0 0 0 0 0 0 0 0 0 0 0 0 0 0 0 0 0 0 0 0 0 0 -0 0 0 0 0 0 0 0 0 0 0 0 0 0 0 0 0
0 0 0 0 0 0 0 0 0 0 0 0 0 0 0 0 0 0 0 0 -0 -0 -0 0 0 -0 0 0 0 -0 -0 0 0 0 0 0 0 0 0 0 0 0 0
0 0 0 0 0 0 0 0 0 0 0 0 0 0 0 0 0 0 0 0 0 -0 -0 0 0 0 0 0 -0 0 0 0 0 0 0 0 0 0 0 0 0 0 0
0 0 0 0 0 0 0 0 0 0 0 -0 -0 0 0 0 0 0 -0 -0 -0 -0 -0 -0 -0 -0 -0 -0 0 0 0 0 0 0 -0 0 0 0 0 0 0 0 0
Wind_Speed_500mb
55 65 58 41 48 38 35 34 26 17 14 12 6 10 15 20 19 23 26 27 28 30 33 37 38 38 42 42 41 42 41 41 47 51 47 40 36 30 37 45 49 50 46
78 77 19 37 40 33 31 29 22 14 10 13 16 20 24 26 29 30 31 32 35 38 41 42 40 37 33 34 39 42 46 46 47 50 50 42 38 36 34 32 49 47 47
64 26 34 44 35 34 32 22 16 14 15 19 26 31 34 35 34 34 36 38 42 42 38 36 32 29 28 25 29 37 46 54 54 52 52 47 51 47 47 44 38 38 47
50 28 39 36 33 31 23 15 13 17 22 29 33 35 37 38 38 38 40 40 40 40 39 43 46 44 42 39 37 35 39 52 57 61 61 59 58 54 57 51 45 44 45
61 42 28 23 21 16 10 11 18 26 30 30 33 37 36 43 42 45 51 54 51 47 42 44 47 48 47 47 46 44 42 47 58 64 64 61 64 68 67 53 49 50 49
35 19 13 5 12 15 20 28 33 33 33 37 39 42 47 50 53 57 60 60 58 54 51 49 46 46 47 46 43 45 48 48 53 61 61 72 74 75 66 56 58 54 56
21 16 11 12 14 18 24 28 31 34 36 37 42 42 49 57 69 65 68 60 55 55 55 54 50 50 46 47 46 45 47 50 50 52 62 62 64 62 57 53 55 61 66
26 24 25 28 31 34 34 35 35 35 38 41 47 51 61 69 73 74 70 59 60 58 55 57 58 56 51 49 46 49 49 50 53 49 53 59 65 61 58 58 56 56 58
22 20 21 24 27 29 30 33 39 42 46 52 59 66 73 78 76 67 55 55 58 61 62 57 54 52 51 48 50 54 55 56 51 50 55 58 58 51 48 49 53 54 62
18 20 24 30 33 37 41 45 49 55 61 66 70 72 73 74 67 57 54 54 56 55 56 58 56 53 49 49 49 50 54 57 51 50 50 57 57 58 59 57 56 57 59
28 32 35 39 41 45 48 52 57 61 65 67 70 71 67 62 58 55 55 56 56 55 54 52 50 43 42 44 46 48 49 51 52 50 52 52 52 53 53 56 56 54 55
39 38 35 35 35 37 40 42 45 49 54 58 59 60 59 58 55 54 49 48 47 50 40 39 40 41 40 38 38 42 45 45 56 56 52 54 53 51 47 45 45 47 56
32 31 34 36 36 39 44 47 48 48 53 55 51 53 55 51 50 54 48 47 44 40 39 36 33 29 32 32 35 37 37 46 53 60 59 55 58 56 53 52 52 52 50
23 27 35 42 47 50 54 56 57 57 59 59 60 67 61 59 59 60 56 59 56 57 52 48 50 49 49 49 55 58 59 52 49 57 61 67 67 65 62 61 65 63 62
24 35 45 56 64 71 75 73 66 60 55 59 62 65 72 72 71 61 54 60 64 63 58 64 64 61 61 58 58 62 63 70 67 61 58 60 65 67 66 62 64 66 63
28 43 51 65 76 82 83 81 69 65 61 56 54 55 59 66 64 60 60 59 62 64 67 56 59 66 66 69 67 66 66 65 68 69 67 64 61 60 62 59 52 55 57
29 39 47 56 69 81 87 82 81 73 62 61 56 59 65 70 65 66 59 62 59 54 58 68 69 67 69 71 70 70 69 66 62 64 68 71 68 64 57 50 47 44 42
31 39 46 53 72 83 88 84 73 71 76 74 72 70 58 60 63 71 67 69 79 78 83 75 70 70 72 71 71 73 68 64 59 57 58 61 66 67 67 67 58 51 52
37 42 54 60 71 79 87 80 71 69 72 80 81 82 63 57 53 50 57 61 61 60 56 70 59 64 74 75 69 62 58 56 53 54 51 54 54 59 64 67 67 63 58
42 45 59 58 68 79 88 83 85 78 78 79 81 81 73 63 48 51 54 61 57 54 51 49 53 52 55 53 53 55 56 55 55 51 48 50 50 53 55 56 59 60 61
44 50 53 61 67 79 88 86 85 79 79 81 82 78 68 58 55 51 47 58 59 50 54 53 56 57 47 45 47 54 57 56 55 51 47 42 44 46 50 54 56 58 59
46 52 59 64 68 79 90 88 85 79 79 81 82 77 67 58 51 48 48 44 47 49 43 42 43 40 37 42 40 42 45 50 53 56 55 50 46 46 45 47 49 49 51
49 56 61 65 67 79 94 88 80 77 76 77 78 76 69 61 53 48 46 44 43 43 42 46 48 48 50 50 49 43 45 39 47 48 53 51 49 49 49 49 47 48 50
52 57 63 64 68 83 90 82 80 79 78 77 80 77 70 62 56 50 47 44 43 43 43 42 46 51 51 54 54 56 49 45 34 40 48 51 52 48 47 47 47 47 45
54 61 61 62 70 86 79 80 81 79 78 77 80 78 72 65 59 53 48 46 44 45 43 44 48 50 52 54 58 58 59 52 49 51 48 49 54 51 50 49 45 45 46
57 58 56 61 76 73 75 77 78 78 77 78 77 73 68 64 59 56 53 51 49 48 48 50 50 50 50 50 51 50 49 51 54 54 57 60 59 58 56 52 44 43 43
Wind_Direction_500mb
315 250 225 212 214 228 231 235 229 215 212 190 271 299 310 314 312 311 300 290 285 286 289 290 288 281 277 271 271 266 263 264 272 280 288 294 297 306 265 249 247 250 245
318 331 168 219 216 201 211 196 191 202 230 258 283 292 293 292 296 298 296 290 288 288 289 288 289 291 284 271 267 259 255 258 256 267 273 279 288 296 274 275 244 244 236
306 288 210 210 197 184 186 182 196 232 251 273 282 282 282 283 286 290 293 291 291 293 291 285 289 290 288 292 283 263 260 258 258 261 265 272 274 278 278 269 259 244 246
227 265 205 197 168 172 172 177 212 246 266 277 283 290 292 289 290 294 297 295 289 286 277 275 281 284 284 283 283 280 268 262 259 256 254 265 263 268 271 267 260 255 250
239 194 193 150 159 164 189 247 282 293 294 296 292 299 294 291 294 300 301 297 291 285 277 278 280 280 281 279 277 273 270 263 261 252 253 254 261 262 258 263 260 257 257
171 163 145 189 287 312 310 313 312 307 301 304 298 304 308 304 303 304 308 303 281 278 276 274 279 279 278 277 273 268 269 266 260 256 246 252 254 259 253 262 258 257 256
181 186 212 255 284 286 285 282 275 274 278 284 282 284 287 294 299 302 308 297 289 274 273 273 272 273 274 275 273 267 262 260 260 261 253 248 251 256 259 263 260 260 257
211 224 232 240 247 249 250 250 254 257 260 267 275 279 283 290 296 302 302 288 282 280 273 268 269 270 269 271 271 274 266 258 253 256 261 254 257 261 263 268 266 264 262
199 214 230 240 244 247 254 258 261 268 273 277 279 285 287 290 293 297 296 290 288 285 277 270 265 266 264 262 271 274 267 259 253 253 255 258 257 250 255 264 258 260 256
257 276 284 286 288 283 281 283 283 284 284 283 285 285 285 285 288 286 287 291 290 291 285 273 266 261 261 264 263 263 266 257 255 254 257 257 258 255 252 255 259 261 262
309 307 307 306 306 301 296 294 291 288 288 288 287 284 282 284 288 285 282 284 285 287 289 281 273 265 258 255 257 259 264 265 257 258 255 252 249 251 249 248 251 255 259
333 337 337 338 337 329 322 316 309 307 299 295 294 292 288 285 281 280 281 279 282 273 288 284 267 259 258 258 262 267 263 259 256 258 260 252 247 251 253 254 257 262 263
344 348 353 352 347 342 336 329 324 316 309 304 303 305 305 298 288 277 277 274 272 266 273 279 263 239 235 253 265 273 275 262 257 257 259 259 256 255 258 260 261 269 269
354 359 357 351 346 343 339 334 327 323 319 313 309 308 306 304 298 285 286 284 279 271 267 268 260 254 258 267 264 267 272 272 272 262 254 257 260 261 261 265 270 271 269
354 351 347 346 342 338 336 334 328 320 310 303 296 293 296 296 299 295 290 286 279 277 280 271 263 264 264 266 267 269 269 267 266 263 263 257 257 259 261 264 267 269 265
347 349 348 347 347 348 343 333 326 320 315 311 302 289 283 286 293 289 280 276 276 277 275 273 266 261 263 267 269 272 272 270 264 262 259 260 260 263 264 265 267 261 260
342 341 343 347 351 350 347 340 329 327 322 316 306 295 288 285 281 276 269 267 271 277 277 268 266 260 261 264 267 271 274 273 267 260 260 258 258 259 259 262 257 260 256
335 335 334 333 342 344 346 343 337 323 322 322 324 320 304 291 284 282 288 279 277 272 276 276 268 264 262 266 270 274 273 273 266 262 262 261 256 254 253 255 256 261 256
334 333 328 324 334 341 344 341 330 321 317 322 325 324 321 295 296 277 276 279 283 280 276 263 265 264 267 272 269 266 269 267 265 268 263 261 257 252 251 251 253 258 265
333 323 328 328 335 340 341 340 336 330 326 325 325 324 323 317 303 288 278 279 287 276 264 261 256 253 255 265 268 266 263 267 269 266 263 261 257 251 252 251 251 253 258
330 330 331 334 335 339 339 337 334 329 328 326 323 326 325 316 303 288 281 278 286 270 265 264 261 253 254 272 262 259 263 269 269 266 264 267 255 253 254 254 255 257 261
335 338 338 334 334 337 338 337 334 332 330 326 327 328 328 321 312 301 293 284 276 273 271 275 268 267 276 270 272 269 267 271 268 266 266 265 262 255 253 253 255 259 260
340 338 334 332 332 336 337 335 334 334 333 332 333 331 328 323 315 305 297 290 282 276 267 262 255 258 254 258 267 265 264 274 273 267 270 266 264 261 250 254 257 260 262
335 331 331 332 332 334 333 334 335 336 334 333 334 332 328 323 316 309 302 296 289 279 273 269 260 261 263 263 260 256 257 258 267 268 266 262 263 259 250 253 256 261 263
333 330 332 334 334 333 335 335 335 335 334 334 333 330 326 322 318 313 308 301 293 288 282 274 270 267 267 267 267 267 250 260 265 261 255 251 253 253 255 255 255 256 257
332 333 335 338 338 340 338 337 337 337 336 334 332 328 325 321 316 312 307 301 295 287 279 277 276 272 271 268 266 263 255 255 261 265 256 250 245 249 248 244 247 251 254
Wind_Speed_850mb
55 65 58 41 48 38 35 34 26 17 14 12 6 10 15 20 19 23 26 27 28 30 33 37 38 38 42 42 41 42 41 41 47 51 47 40 36 30 37 45 49 50 46
78 77 19 37 40 33 31 29 22 14 10 13 16 20 24 26 29 30 31 32 35 38 41 42 40 37 33 34 39 42 46 46 47 50 50 42 38 36 34 32 49 47 47
64 26 34 44 35 34 32 22 16 14 15 19 26 31 34 35 34 34 36 38 42 42 38 36 32 29 28 25 29 37 46 54 54 52 52 47 51 47 47 44 38 38 47
50 28 39 36 33 31 23 15 13 17 22 29 33 35 37 38 38 38 40 40 40 40 39 43 46 44 42 39 37 35 39 52 57 61 61 59 58 54 57 51 45 44 45
61 42 28 23 21 16 10 11 18 26 30 30 33 37 36 43 42 45 51 54 51 47 42 44 47 48 47 47 46 44 42 47 58 64 64 61 64 68 67 53 49 50 49
35 19 13 5 12 15 20 28 33 33 33 37 39 42 47 50 53 57 60 60 58 54 51 49 46 46 47 46 43 45 48 48 53 61 61 72 74 75 66 56 58 54 56
21 16 11 12 14 18 24 28 31 34 36 37 42 42 49 57 69 65 68 60 55 55 55 54 50 50 46 47 46 45 47 50 50 52 62 62 64 62 57 53 55 61 66
26 24 25 28 31 34 34 35 35 35 38 41 47 51 61 69 73 74 70 59 60 58 55 57 58 56 51 49 46 49 49 50 53 49 53 59 65 61 58 58 56 56 58
22 20 21 24 27 29 30 33 39 42 46 52 59 66 73 78 76 67 55 55 58 61 62 57 54 52 51 48 50 54 55 56 51 50 55 58 58 51 48 49 53 54 62
18 20 24 30 33 37 41 45 49 55 61 66 70 72 73 74 67 57 54 54 56 55 56 58 56 53 49 49 49 50 54 57 51 50 50 57 57 58 59 57 56 57 59
28 32 35 39 41 45 48 52 57 61 65 67 70 71 67 62 58 55 55 56 56 55 54 52 50 43 42 44 46 48 49 51 52 50 52 52 52 53 53 56 56 54 55
39 38 35 35 35 37 40 42 45 49 54 58 59 60 59 58 55 54 49 48 47 50 40 39 40 41 40 38 38 42 45 45 56 56 52 54 53 51 47 45 45 47 56
32 31 34 36 36 39 44 47 48 48 53 55 51 53 55 51 50 54 48 47 44 40 39 36 33 29 32 32 35 37 37 46 53 60 59 55 58 56 53 52 52 52 50
23 27 35 42 47 50 54 56 57 57 59 59 60 67 61 59 59 60 56 59 56 57 52 48 50 49 49 49 55 58 59 52 49 57 61 67 67 65 62 61 65 63 62
24 35 45 56 64 71 75 73 66 60 55 59 62 65 72 72 71 61 54 60 64 63 58 64 64 61 61 58 58 62 63 70 67 61 58 60 65 67 66 62 64 66 63
28 43 51 65 76 82 83 81 69 65 61 56 54 55 59 66 64 60 60 59 62 64 67 56 59 66 66 69 67 66 66 65 68 69 67 64 61 60 62 59 52 55 57
29 39 47 56 69 81 87 82 81 73 62 61 56 59 65 70 65 66 59 62 59 54 58 68 69 67 69 71 70 70 69 66 62 64 68 71 68 64 57 50 47 44 42
31 39 46 53 72 83 88 84 73 71 76 74 72 70 58 60 63 71 67 69 79 78 83 75 70 70 72 71 71 73 68 64 59 57 58 61 66 67 67 67 58 51 52
37 42 54 60 71 79 87 80 71 69 72 80 81 82 63 57 53 50 57 61 61 60 56 70 59 64 74 75 69 62 58 56 53 54 51 54 54 59 64 67 67 63 58
42 45 59 58 68 79 88 83 85 78 78 79 81 81 73 63 48 51 54 61 57 54 51 49 53 52 55 53 53 55 56 55 55 51 48 50 50 53 55 56 59 60 61
44 50 53 61 67 79 88 86 85 79 79 81 82 78 68 58 55 51 47 58 59 50 54 53 56 57 47 45 47 54 57 56 55 51 47 42 44 46 50 54 56 58 59
46 52 59 64 68 79 90 88 85 79 79 81 82 77 67 58 51 48 48 44 47 49 43 42 43 40 37 42 40 42 45 50 53 56 55 50 46 46 45 47 49 49 51
49 56 61 65 67 79 94 88 80 77 76 77 78 76 69 61 53 48 46 44 43 43 42 46 48 48 50 50 49 43 45 39 47 48 53 51 49 49 49 49 47 48 50
52 57 63 64 68 83 90 82 80 79 78 77 80 77 70 62 56 50 47 44 43 43 43 42 46 51 51 54 54 56 49 45 34 40 48 51 52 48 47 47 47 47 45
54 61 61 62 70 86 79 80 81 79 78 77 80 78 72 65 59 53 48 46 44 45 43 44 48 50 52 54 58 58 59 52 49 51 48 49 54 51 50 49 45 45 46
57 58 56 61 76 73 75 77 78 78 77 78 77 73 68 64 59 56 53 51 49 48 48 50 50 50 50 50 51 50 49 51 54 54 57 60 59 58 56 52 44 43 43
Wind_Direction_850mb
315 250 225 212 214 228 231 235 229 215 212 190 271 299 310 314 312 311 300 290 285 286 289 290 288 281 277 271 271 266 263 264 272 280 288 294 297 306 265 249 247 250 245
318 331 168 219 216 201 211 196 191 202 230 258 283 292 293 292 296 298 296 290 288 288 289 288 289 291 284 271 267 259 255 258 256 267 273 279 288 296 274 275 244 244 236
306 288 210 210 197 184 186 182 196 232 251 273 282 282 282 283 286 290 293 291 291 293 291 285 289 290 288 292 283 263 260 258 258 261 265 272 274 278 278 269 259 244 246
227 265 205 197 168 172 172 177 212 246 266 277 283 290 292 289 290 294 297 295 289 286 277 275 281 284 284 283 283 280 268 262 259 256 254 265 263 268 271 267 260 255 250
239 194 193 150 159 164 189 247 282 293 294 296 292 299 294 291 294 300 301 297 291 285 277 278 280 280 281 279 277 273 270 263 261 252 253 254 261 262 258 263 260 257 257
171 163 145 189 287 312 310 313 312 307 301 304 298 304 308 304 303 304 308 303 281 278 276 274 279 279 278 277 273 268 269 266 260 256 246 252 254 259 253 262 258 257 256
181 186 212 255 284 286 285 282 275 274 278 284 282 284 287 294 299 302 308 297 289 274 273 273 272 273 274 275 273 267 262 260 260 261 253 248 251 256 259 263 260 260 257
211 224 232 240 247 249 250 250 254 257 260 267 275 279 283 290 296 302 302 288 282 280 273 268 269 270 269 271 271 274 266 258 253 256 261 254 257 261 263 268 266 264 262
199 214 230 240 244 247 254 258 261 268 273 277 279 285 287 290 293 297 296 290 288 285 277 270 265 266 264 262 271 274 267 259 253 253 255 258 257 250 255 264 258 260 256
257 276 284 286 288 283 281 283 283 284 284 283 285 285 285 285 288 286 287 291 290 291 285 273 266 261 261 264 263 263 266 257 255 254 257 257 258 255 252 255 259 261 262
309 307 307 306 306 301 296 294 291 288 288 288 287 284 282 284 288 285 282 284 285 287 289 281 273 265 258 255 257 259 264 265 257 258 255 252 249 251 249 248 251 255 259
333 337 337 338 337 329 322 316 309 307 299 295 294 292 288 285 281 280 281 279 282 273 288 284 267 259 258 258 262 267 263 259 256 258 260 252 247 251 253 254 257 262 263
344 348 353 352 347 342 336 329 324 316 309 304 303 305 305 298 288 277 277 274 272 266 273 279 263 239 235 253 265 273 275 262 257 257 259 259 256 255 258 260 261 269 269
354 359 357 351 346 343 339 334 327 323 319 313 309 308 306 304 298 285 286 284 279 271 267 268 260 254 258 267 264 267 272 272 272 262 254 257 260 261 261 265 270 271 269
354 351 347 346 342 338 336 334 328 320 310 303 296 293 296 296 299 295 290 286 279 277 280 271 263 264 264 266 267 269 269 267 266 263 263 257 257 259 261 264 267 269 265
347 349 348 347 347 348 343 333 326 320 315 311 302 289 283 286 293 289 280 276 276 277 275 273 266 261 263 267 269 272 272 270 264 262 259 260 260 263 264 265 267 261 260
342 341 343 347 351 350 347 340 329 327 322 316 306 295 288 285 281 276 269 267 271 277 277 268 266 260 261 264 267 271 274 273 267 260 260 258 258 259 259 262 257 260 256
335 335 334 333 342 344 346 343 337 323 322 322 324 320 304 291 284 282 288 279 277 272 276 276 268 264 262 266 270 274 273 273 266 262 262 261 256 254 253 255 256 261 256
334 333 328 324 334 341 344 341 330 321 317 322 325 324 321 295 296 277 276 279 283 280 276 263 265 264 267 272 269 266 269 267 265 268 263 261 257 252 251 251 253 258 265
333 323 328 328 335 340 341 340 336 330 326 325 325 324 323 317 303 288 278 279 287 276 264 261 256 253 255 265 268 266 263 267 269 266 263 261 257 251 252 251 251 253 258
330 330 331 334 335 339 339 337 334 329 328 326 323 326 325 316 303 288 281 278 286 270 265 264 261 253 254 272 262 259 263 269 269 266 264 267 255 253 254 254 255 257 261
335 338 338 334 334 337 338 337 334 332 330 326 327 328 328 321 312 301 293 284 276 273 271 275 268 267 276 270 272 269 267 271 268 266 266 265 262 255 253 253 255 259 260
340 338 334 332 332 336 337 335 334 334 333 332 333 331 328 323 315 305 297 290 282 276 267 262 255 258 254 258 267 265 264 274 273 267 270 266 264 261 250 254 257 260 262
335 331 331 332 332 334 333 334 335 336 334 333 334 332 328 323 316 309 302 296 289 279 273 269 260 261 263 263 260 256 257 258 267 268 266 262 263 259 250 253 256 261 263
333 330 332 334 334 333 335 335 335 335 334 334 333 330 326 322 318 313 308 301 293 288 282 274 270 267 267 267 267 267 250 260 265 261 255 251 253 253 255 255 255 256 257
332 333 335 338 338 340 338 337 337 337 336 334 332 328 325 321 316 312 307 301 295 287 279 277 276 272 271 268 266 263 255 255 261 265 256 250 245 249 248 244 247 251 254